This demonstration page uses our WeatherBlox Daily Observations layout. Learn more.

Left ArrowRight Arrow

34.02893, -84.19858

Hourly Observations for August 10, 2015

Temp ( °F °C ) Dew Point ( °F °C ) Humidity (%) Winds ( mph kmh ) Pressure ( in mb ) Visibility ( mi km ) Precip ( " mm )
12:53 am 00:53 Clear 79 26.1 72 22.2 79 79 S 3 6 29.93 1014 10 16 0.00 0.00
1:53 am 01:53 Clear 78 25.6 72 22.2 82 82 S 3 6 29.92 1013 10 16 0.00 0.00
2:53 am 02:53 Mostly Clear 78 25.6 72 22.2 82 82 Calm 29.92 1013 10 16 0.00 0.00
3:53 am 03:53 Clear 77 25 72 22.2 85 85 Calm 29.91 1013 10 16 0.00 0.00
4:53 am 04:53 Clear 75 23.9 72 22.2 90 90 Calm 29.91 1013 10 16 0.00 0.00
5:53 am 05:53 Partly Cloudy 74 23.3 72 22.2 94 94 Calm 29.92 1013 9 14 0.00 0.00
6:53 am 06:53 Clear 74 23.3 72 22.2 94 94 Calm 29.93 1014 10 16 0.00 0.00
7:53 am 07:53 Partly Cloudy 76 24.4 73 22.8 91 91 S 5 7 29.94 1014 9 14 0.00 0.00
8:53 am 08:53 Sunny 80 26.7 72 22.2 76 76 SSW 6 9 29.95 1014 10 16 0.00 0.00
9:53 am 09:53 Sunny 83 28.3 73 22.8 72 72 SW 6 9 29.95 1014 10 16 0.00 0.00
10:53 am 10:53 Sunny 87 30.6 73 22.8 63 63 SW 8 13 29.97 1015 10 16 0.00 0.00
11:53 am 11:53 Mostly Cloudy 88 31.1 73 22.8 61 61 SW 8 13 29.97 1015 10 16 0.00 0.00
12:53 pm 12:53 Mostly Sunny 91 32.8 73 22.8 56 56 VRB 5 7 29.95 1014 10 16 0.00 0.00
1:53 pm 13:53 Partly Cloudy 90 32.2 72 22.2 56 56 W 9 15 29.93 1014 10 16 0.00 0.00
2:53 pm 14:53 Sunny 92 33.3 72 22.2 52 52 SSW 13 20 29.89 1012 10 16 0.00 0.00
3:53 pm 15:53 Partly Cloudy 93 33.9 71 21.7 49 49 SW 13 20 29.87 1012 10 16 0.00 0.00
4:53 pm 16:53 Mostly Sunny 94 34.4 71 21.7 48 48 SW 12 19 29.86 1011 10 16 0.00 0.00
5:32 pm 17:32 Sunny with Nearby Thunderstorms 91 33 72 22 52 52 SW 9 15 29.83 1010 10 16 0.00 0.00
5:53 pm 17:53 Mostly Cloudy with Nearby Thunderstorms 79 26.1 69 20.6 72 72 N 17 28 29.88 1012 10 16 0.00 0.00
6:00 pm 18:00 Mostly Cloudy with Nearby Thunderstorms 79 26.1 69 20.6 72 72 N 16 26 29.88 1012 10 16 0.00 0.00
6:15 pm 18:15 Mostly Cloudy with Thunderstorms 79 26.1 69 20.6 72 72 VRB 5 7 29.88 1012 10 16 0.00 0.00
6:53 pm 18:53 Sunny with Nearby Thunderstorms 80 26.7 69 20.6 69 69 N 3 6 29.89 1012 10 16 0.00 0.00
7:03 pm 19:03 Sunny 81 27 70 21 70 70 Calm 29.88 1012 10 16 0.00 0.00
7:53 pm 19:53 Sunny 80 26.7 69 20.6 69 69 Calm 29.88 1012 10 16 0.00 0.00
8:53 pm 20:53 Partly Cloudy 76 24.4 72 22.2 88 88 VRB 6 9 29.90 1013 10 16 0.00 0.00
9:53 pm 21:53 Mostly Clear 74 23.3 72 22.2 94 94 undefined N/A 29.91 1013 10 16 0.00 0.00
10:18 pm 22:18 Partly Cloudy with Thunderstorms 75 24 72 22 89 89 Calm 29.91 1013 10 16 0.00 0.00
10:28 pm 22:28 Mostly Cloudy with Thunderstorms 75 24 72 22 89 89 W 13 20 29.97 1015 2 3 0.00 0.00
10:39 pm 22:39 Mostly Cloudy with Strong Thunderstorms 74 23.3 72 22.2 94 94 SSE 6 9 29.94 1014 1 2 0.34 8.64
10:42 pm 22:42 Cloudy with Rain 74 23.3 72 22.2 94 94 Calm 29.94 1014 2 3 0.34 8.64
10:51 pm 22:51 Cloudy 73 23 73 23 100 100 W 3 6 29.94 1014 10 16 0.34 8.64
10:53 pm 22:53 Cloudy 74 23.3 73 22.8 97 97 Calm 29.92 1013 10 16 0.34 8.64
11:04 pm 23:04 Mostly Cloudy with Nearby Thunderstorms 74 23.3 73 22.8 97 97 SSE 6 9 29.94 1014 9 14 0.00 0.00
11:14 pm 23:14 Mostly Cloudy 73 23 73 23 100 100 S 5 7 29.94 1014 9 14 0.00 0.00
11:53 pm 23:53 Clear 73 22.8 72 22.2 96 96 SSE 3 6 29.91 1013 9 14 0.00 0.00

Powered by AerisWeather